Location: Peterborough
(44.3048°N, 78.3199°W)
Time: 03:13:11
(UTC-04:00)

ISS - Pass Details

Date: 13 May 2025
Orbit: 415 x 418 km, 51.6° (Epoch: 20 June)

Event Time Altitude Azimuth Distance (km) Brightness Sun altitude
Rises 22:17:33 0° 272° (W) 2,357 0.8 -15.8°
Reaches altitude 10° 22:19:50 10° 285° (WNW) 1,494 -0.1 -16.1°
Maximum altitude 22:22:47 28° 346° (NNW) 822 -1.6 -16.4°
Drops below altitude 10° 22:25:44 10° 48° (NE) 1,494 -0.9 -16.8°
Enters shadow 22:28:12 -1° 61° (ENE) 2,424 0.0 -17.0°
